YON495 LFBO-KBOS

Flight info

Callsign YON495
Flight time N/A
Altitude 38000
Route LACO7A LACOU DCT CHALA DCT CNA DCT GALOF DCT NOVAN DCT TULTA DCT GUNSO DCT SOMAX DCT 51N020W 51N030W 51N040W 50N050W DCT ELSIR N402C ALLEX DCT AJJAY OOSHN5
Aircraft A319/M-SDE3FGHIRWY/LB1

Departure

Time N/A
Airport Toulouse-Blagnac Airport (LFBO)

Arrival

Time 2026-05-04 05:54
Airport Boston Logan International Airport (KBOS)
Time Latitude Longitude Altitude Speed Heading
2026-05-04 02:09 51.09095 -36.93261 38434 ft 435 kts 268°
2026-05-04 02:09 51.09015 -36.98071 38430 ft 435 kts 268°
2026-05-04 02:09 51.08852 -37.07704 38424 ft 435 kts 268°
2026-05-04 02:10 51.08675 -37.17280 38420 ft 436 kts 268°
2026-05-04 02:10 51.08492 -37.26911 38419 ft 436 kts 268°
2026-05-04 02:11 51.08337 -37.34941 38418 ft 436 kts 268°
2026-05-04 02:11 51.08137 -37.44580 38413 ft 436 kts 268°
2026-05-04 02:12 51.07934 -37.54216 38415 ft 436 kts 268°
2026-05-04 02:12 51.07720 -37.63865 38421 ft 436 kts 268°
2026-05-04 02:13 51.07501 -37.73509 38412 ft 436 kts 268°
2026-05-04 02:13 51.07274 -37.83103 38411 ft 437 kts 268°
2026-05-04 02:14 51.07032 -37.92764 38409 ft 437 kts 268°
2026-05-04 02:14 51.06783 -38.02429 38411 ft 437 kts 268°
2026-05-04 02:15 51.06530 -38.12100 38411 ft 437 kts 268°
2026-05-04 02:15 51.06272 -38.21703 38412 ft 437 kts 268°
2026-05-04 02:16 51.06000 -38.31366 38402 ft 437 kts 268°
2026-05-04 02:16 51.05727 -38.41037 38413 ft 438 kts 268°
2026-05-04 02:17 51.05445 -38.50711 38411 ft 438 kts 267°
2026-05-04 02:17 51.05152 -38.60381 38405 ft 438 kts 267°
2026-05-04 02:18 51.04845 -38.70058 38405 ft 438 kts 267°
2026-05-04 02:18 51.04531 -38.79674 38403 ft 438 kts 267°
2026-05-04 02:19 51.04208 -38.89338 38393 ft 438 kts 267°
2026-05-04 02:19 51.03884 -38.99020 38396 ft 437 kts 267°
2026-05-04 02:20 51.03555 -39.08672 38392 ft 437 kts 267°
2026-05-04 02:20 51.03219 -39.18249 38390 ft 437 kts 267°
2026-05-04 02:21 51.02869 -39.27872 38393 ft 436 kts 267°
2026-05-04 02:21 51.02511 -39.37499 38389 ft 437 kts 267°
2026-05-04 02:22 51.02155 -39.47141 38380 ft 436 kts 267°
2026-05-04 02:22 51.01791 -39.56711 38378 ft 436 kts 267°
2026-05-04 02:23 51.01402 -39.66336 38382 ft 435 kts 266°
2026-05-04 02:23 51.01009 -39.75915 38377 ft 435 kts 266°
2026-05-04 02:24 51.00613 -39.85504 38373 ft 435 kts 266°
2026-05-04 02:24 51.00213 -39.95092 38374 ft 435 kts 266°
2026-05-04 02:25 50.99779 -40.04670 38370 ft 435 kts 266°
2026-05-04 02:25 50.99247 -40.14178 38374 ft 435 kts 265°
2026-05-04 02:26 50.98669 -40.23724 38370 ft 434 kts 265°
2026-05-04 02:26 50.98103 -40.33270 38369 ft 434 kts 265°
2026-05-04 02:27 50.97550 -40.42802 38362 ft 433 kts 265°
2026-05-04 02:27 50.96984 -40.52259 38340 ft 433 kts 265°
2026-05-04 02:28 50.96409 -40.61776 38351 ft 432 kts 265°
2026-05-04 02:28 50.95830 -40.71275 38350 ft 432 kts 265°
2026-05-04 02:29 50.95240 -40.80754 38351 ft 432 kts 265°
2026-05-04 02:29 50.94647 -40.90171 38352 ft 431 kts 265°
2026-05-04 02:30 50.94041 -40.99634 38345 ft 431 kts 265°
2026-05-04 02:30 50.93427 -41.09078 38335 ft 430 kts 265°
2026-05-04 02:31 50.92805 -41.18507 38337 ft 429 kts 265°
2026-05-04 02:31 50.92184 -41.27921 38337 ft 429 kts 265°
2026-05-04 02:32 50.91560 -41.37312 38334 ft 428 kts 265°
2026-05-04 02:32 50.90920 -41.46693 38331 ft 428 kts 265°
2026-05-04 02:33 50.90278 -41.56005 38322 ft 428 kts 265°
2026-05-04 02:33 50.89628 -41.65379 38322 ft 428 kts 265°
2026-05-04 02:34 50.88968 -41.74754 38316 ft 427 kts 265°
2026-05-04 02:34 50.88298 -41.84104 38308 ft 427 kts 265°
2026-05-04 02:35 50.87624 -41.93412 38303 ft 427 kts 265°
2026-05-04 02:35 50.86946 -42.02760 38297 ft 427 kts 265°
2026-05-04 02:36 50.86258 -42.12103 38300 ft 427 kts 265°
2026-05-04 02:36 50.85552 -42.21446 38274 ft 427 kts 265°
2026-05-04 02:37 50.84855 -42.30702 38288 ft 425 kts 265°
2026-05-04 02:37 50.84156 -42.39992 38290 ft 425 kts 265°
2026-05-04 02:38 50.83444 -42.49269 38282 ft 424 kts 265°
2026-05-04 02:38 50.82727 -42.58531 38290 ft 424 kts 265°
2026-05-04 02:39 50.81995 -42.67796 38275 ft 424 kts 265°
2026-05-04 02:39 50.81266 -42.76974 38251 ft 423 kts 265°
2026-05-04 02:40 50.80533 -42.86195 38267 ft 422 kts 265°
2026-05-04 02:40 50.79787 -42.95386 38265 ft 420 kts 265°
2026-05-04 02:41 50.79029 -43.04538 38262 ft 419 kts 265°
2026-05-04 02:41 50.78273 -43.13673 38252 ft 419 kts 265°
2026-05-04 02:42 50.77510 -43.22796 38251 ft 419 kts 265°
2026-05-04 02:42 50.76745 -43.31913 38204 ft 418 kts 265°
2026-05-04 02:43 50.75969 -43.40951 38248 ft 416 kts 265°
2026-05-04 02:43 50.75190 -43.49994 38257 ft 414 kts 265°
2026-05-04 02:44 50.74411 -43.58990 38245 ft 412 kts 265°
2026-05-04 02:44 50.73635 -43.67942 38242 ft 411 kts 265°
2026-05-04 02:45 50.72855 -43.76810 38228 ft 410 kts 265°
2026-05-04 02:45 50.72058 -43.85714 38209 ft 409 kts 265°
2026-05-04 02:46 50.71261 -43.94594 38229 ft 407 kts 265°
2026-05-04 02:46 50.70456 -44.03416 38225 ft 405 kts 265°
2026-05-04 02:47 50.69655 -44.12181 38223 ft 403 kts 265°
2026-05-04 02:47 50.68851 -44.20931 38210 ft 402 kts 265°
2026-05-04 02:48 50.68042 -44.29655 38218 ft 402 kts 265°
2026-05-04 02:48 50.67232 -44.38315 38208 ft 401 kts 264°
2026-05-04 02:49 50.66410 -44.46974 38169 ft 393 kts 264°
2026-05-04 02:49 50.65600 -44.55420 38170 ft 388 kts 264°
2026-05-04 02:50 50.64802 -44.63764 38163 ft 387 kts 264°
2026-05-04 02:50 50.63992 -44.72148 38163 ft 387 kts 264°
2026-05-04 02:51 50.63181 -44.80533 38154 ft 387 kts 264°
2026-05-04 02:51 50.62369 -44.88862 38157 ft 387 kts 264°
2026-05-04 02:52 50.61535 -44.97230 38107 ft 386 kts 264°
2026-05-04 02:52 50.60697 -45.05593 38126 ft 387 kts 264°
2026-05-04 02:53 50.59857 -45.13969 38136 ft 387 kts 264°
2026-05-04 02:53 50.59006 -45.22352 38137 ft 388 kts 264°
2026-05-04 02:54 50.58152 -45.30733 38122 ft 388 kts 264°
2026-05-04 02:54 50.57284 -45.39131 38124 ft 388 kts 264°
2026-05-04 02:55 50.55987 -45.51688 38077 ft 389 kts 264°
2026-05-04 02:56 50.55108 -45.60092 38081 ft 390 kts 264°
2026-05-04 02:56 50.54224 -45.68466 38089 ft 391 kts 263°
2026-05-04 02:57 50.53320 -45.76914 38084 ft 392 kts 263°
2026-05-04 02:57 50.52417 -45.85366 38093 ft 392 kts 263°
2026-05-04 02:58 50.51504 -45.93825 38086 ft 393 kts 263°
2026-05-04 02:58 50.50595 -46.02242 38079 ft 394 kts 263°
2026-05-04 02:59 50.49670 -46.10737 38046 ft 396 kts 263°
2026-05-04 02:59 50.48730 -46.19286 38048 ft 398 kts 263°
2026-05-04 03:00 50.47772 -46.27890 38046 ft 400 kts 263°
2026-05-04 03:00 50.46967 -46.35058 38052 ft 401 kts 263°
2026-05-04 03:01 50.46002 -46.43705 38055 ft 402 kts 263°
2026-05-04 03:01 50.45028 -46.52357 38059 ft 403 kts 263°
2026-05-04 03:02 50.44038 -46.61029 38020 ft 403 kts 262°
2026-05-04 03:02 50.43042 -46.69703 38025 ft 405 kts 262°
2026-05-04 03:03 50.42042 -46.78369 38035 ft 407 kts 262°
2026-05-04 03:03 50.41028 -46.87130 38037 ft 409 kts 262°
2026-05-04 03:04 50.40001 -46.95903 38032 ft 410 kts 262°
2026-05-04 03:04 50.38964 -47.04703 38035 ft 410 kts 262°
2026-05-04 03:05 50.37926 -47.13451 38037 ft 411 kts 262°
2026-05-04 03:05 50.36867 -47.22249 38038 ft 411 kts 262°
2026-05-04 03:06 50.35812 -47.31050 38032 ft 411 kts 261°
2026-05-04 03:06 50.34746 -47.39844 38042 ft 411 kts 261°
2026-05-04 03:07 50.33678 -47.48629 38023 ft 411 kts 261°
2026-05-04 03:07 50.32605 -47.57376 38032 ft 411 kts 261°
2026-05-04 03:08 50.31522 -47.66159 38017 ft 411 kts 261°
2026-05-04 03:08 50.30433 -47.74927 38026 ft 410 kts 260°
2026-05-04 03:09 50.29335 -47.83668 38030 ft 409 kts 260°
2026-05-04 03:09 50.28240 -47.92382 38017 ft 408 kts 260°
2026-05-04 03:10 50.27141 -48.01073 38000 ft 407 kts 260°
2026-05-04 03:10 50.26039 -48.09699 37992 ft 407 kts 260°
2026-05-04 03:11 50.24927 -48.18359 37993 ft 407 kts 260°
2026-05-04 03:11 50.23809 -48.27025 37994 ft 406 kts 259°
2026-05-04 03:12 50.22690 -48.35641 38013 ft 404 kts 259°
2026-05-04 03:12 50.21558 -48.44243 38008 ft 403 kts 258°
2026-05-04 03:13 50.20431 -48.52812 37982 ft 403 kts 259°
2026-05-04 03:13 50.19308 -48.61371 37977 ft 402 kts 259°
2026-05-04 03:14 50.18180 -48.69860 37974 ft 402 kts 258°
2026-05-04 03:14 50.17035 -48.78382 37984 ft 400 kts 258°
2026-05-04 03:15 50.15899 -48.86823 37989 ft 396 kts 258°
2026-05-04 03:15 50.14763 -48.95211 37974 ft 393 kts 258°
2026-05-04 03:16 50.13633 -49.03482 37964 ft 392 kts 258°
2026-05-04 03:16 50.12498 -49.11779 37960 ft 391 kts 258°
2026-05-04 03:17 50.11356 -49.20058 37946 ft 390 kts 257°
2026-05-04 03:17 50.10203 -49.28328 37940 ft 390 kts 257°
2026-05-04 03:18 50.09056 -49.36564 37940 ft 388 kts 257°
2026-05-04 03:18 50.07919 -49.44711 37942 ft 387 kts 257°
2026-05-04 03:19 50.06773 -49.52902 37938 ft 386 kts 257°
2026-05-04 03:19 50.05613 -49.61061 37929 ft 386 kts 256°
2026-05-04 03:20 50.04440 -49.69207 37926 ft 386 kts 256°
2026-05-04 03:20 50.03274 -49.77303 37919 ft 386 kts 257°
2026-05-04 03:21 50.02117 -49.85438 37917 ft 385 kts 256°
2026-05-04 03:21 50.00941 -49.93550 37917 ft 383 kts 256°
2026-05-04 03:22 49.99621 -50.01589 37909 ft 382 kts 249°
2026-05-04 03:22 49.97778 -50.09272 37907 ft 382 kts 249°
2026-05-04 03:23 49.95910 -50.17007 37901 ft 382 kts 249°
2026-05-04 03:23 49.94051 -50.24746 37896 ft 382 kts 249°
2026-05-04 03:24 49.92183 -50.32472 37897 ft 382 kts 248°
2026-05-04 03:24 49.90313 -50.40179 37891 ft 381 kts 248°
2026-05-04 03:25 49.88438 -50.47877 37890 ft 381 kts 248°
2026-05-04 03:25 49.86571 -50.55510 37883 ft 381 kts 248°
2026-05-04 03:26 49.84683 -50.63184 37880 ft 380 kts 248°
2026-05-04 03:26 49.82803 -50.70838 37873 ft 380 kts 248°
2026-05-04 03:27 49.80912 -50.78504 37880 ft 380 kts 247°
2026-05-04 03:27 49.79018 -50.86152 37885 ft 380 kts 247°
2026-05-04 03:28 49.77136 -50.93734 37890 ft 380 kts 247°
2026-05-04 03:28 49.75227 -51.01362 37875 ft 380 kts 247°
2026-05-04 03:29 49.73299 -51.08985 37868 ft 381 kts 247°
2026-05-04 03:29 49.71387 -51.16623 37870 ft 381 kts 246°
2026-05-04 03:30 49.69482 -51.24199 37866 ft 380 kts 246°
2026-05-04 03:30 49.67564 -51.31792 37865 ft 379 kts 245°
2026-05-04 03:31 49.65645 -51.39355 37856 ft 378 kts 245°
2026-05-04 03:31 49.63717 -51.46907 37845 ft 378 kts 245°
2026-05-04 03:32 49.61798 -51.54398 37845 ft 378 kts 245°
2026-05-04 03:32 49.59871 -51.61934 37825 ft 377 kts 245°
2026-05-04 03:33 49.57928 -51.69475 37817 ft 378 kts 245°
2026-05-04 03:33 49.55982 -51.77004 37816 ft 378 kts 245°
2026-05-04 03:34 49.54045 -51.84476 37820 ft 378 kts 245°
2026-05-04 03:34 49.52095 -51.91993 37850 ft 378 kts 244°
2026-05-04 03:35 49.50140 -51.99526 37833 ft 378 kts 245°
2026-05-04 03:35 49.48235 -52.07076 37816 ft 379 kts 245°
2026-05-04 03:36 49.46369 -52.14660 37808 ft 379 kts 245°
2026-05-04 03:36 49.44499 -52.22250 37796 ft 379 kts 245°
2026-05-04 03:37 49.42632 -52.29763 37786 ft 379 kts 245°
2026-05-04 03:37 49.40746 -52.37317 37788 ft 379 kts 245°
2026-05-04 03:38 49.38855 -52.44878 37779 ft 379 kts 245°
2026-05-04 03:38 49.36953 -52.52426 37773 ft 380 kts 245°
2026-05-04 03:39 49.35034 -52.60004 37769 ft 381 kts 244°
2026-05-04 03:39 49.33120 -52.67531 37763 ft 381 kts 244°
2026-05-04 03:40 49.31181 -52.75112 37761 ft 382 kts 244°
2026-05-04 03:40 49.29244 -52.82697 37791 ft 382 kts 244°
2026-05-04 03:41 49.27304 -52.90286 37778 ft 383 kts 244°
2026-05-04 03:41 49.25352 -52.97889 37758 ft 384 kts 243°
2026-05-04 03:42 49.23390 -53.05504 37750 ft 385 kts 243°
2026-05-04 03:42 49.21413 -53.13134 37748 ft 386 kts 243°
2026-05-04 03:43 49.19446 -53.20721 37736 ft 386 kts 243°
2026-05-04 03:43 49.17454 -53.28364 37736 ft 387 kts 243°
2026-05-04 03:44 49.15460 -53.36011 37749 ft 387 kts 242°
2026-05-04 03:44 49.13458 -53.43637 37748 ft 387 kts 242°
2026-05-04 03:45 49.11451 -53.51272 37748 ft 387 kts 242°
2026-05-04 03:45 49.09442 -53.58894 37745 ft 387 kts 242°
2026-05-04 03:46 49.07439 -53.66475 37745 ft 387 kts 242°
2026-05-04 03:46 49.05421 -53.74102 37762 ft 388 kts 242°
2026-05-04 03:47 49.03384 -53.81746 37728 ft 390 kts 241°
2026-05-04 03:47 49.01325 -53.89431 37717 ft 393 kts 241°
2026-05-04 03:48 48.99267 -53.97106 37715 ft 394 kts 241°
2026-05-04 03:48 48.97188 -54.04856 37712 ft 396 kts 241°
2026-05-04 03:49 48.95093 -54.12608 37713 ft 396 kts 241°
2026-05-04 03:49 48.92987 -54.20374 37723 ft 397 kts 241°
2026-05-04 03:50 48.90869 -54.28152 37707 ft 398 kts 241°
2026-05-04 03:50 48.88747 -54.35954 37706 ft 400 kts 241°
2026-05-04 03:51 48.86614 -54.43760 37672 ft 400 kts 241°
2026-05-04 03:51 48.84832 -54.50254 37670 ft 401 kts 241°
2026-05-04 03:52 48.82326 -54.59359 37673 ft 402 kts 241°
2026-05-04 03:52 48.80524 -54.65870 37696 ft 404 kts 240°
2026-05-04 03:53 48.78340 -54.73754 37674 ft 406 kts 240°
2026-05-04 03:53 48.76148 -54.81657 37669 ft 407 kts 240°
2026-05-04 03:54 48.73943 -54.89567 37655 ft 407 kts 240°
2026-05-04 03:54 48.71729 -54.97471 37647 ft 408 kts 240°
2026-05-04 03:55 48.69507 -55.05381 37655 ft 408 kts 240°
2026-05-04 03:55 48.67279 -55.13288 37638 ft 409 kts 240°
2026-05-04 03:56 48.65038 -55.21223 37619 ft 410 kts 240°
2026-05-04 03:56 48.62812 -55.29101 37618 ft 410 kts 240°
2026-05-04 03:57 48.60551 -55.37035 37618 ft 410 kts 240°
2026-05-04 03:57 48.58287 -55.44955 37602 ft 411 kts 240°
2026-05-04 03:58 48.54867 -55.56885 37577 ft 414 kts 240°
2026-05-04 03:58 48.52571 -55.64860 37568 ft 415 kts 240°
2026-05-04 03:59 48.50275 -55.72810 37545 ft 416 kts 240°
2026-05-04 03:59 48.47959 -55.80818 37547 ft 416 kts 240°
2026-05-04 04:00 48.45632 -55.88815 37558 ft 417 kts 240°
2026-05-04 04:00 48.43292 -55.96815 37548 ft 417 kts 239°
2026-05-04 04:01 48.40953 -56.04809 37535 ft 417 kts 240°
2026-05-04 04:01 48.38637 -56.12773 37530 ft 418 kts 240°
2026-05-04 04:02 48.36297 -56.20779 37518 ft 417 kts 239°
2026-05-04 04:02 48.33933 -56.28756 37518 ft 418 kts 239°
2026-05-04 04:03 48.31560 -56.36734 37537 ft 418 kts 239°
2026-05-04 04:03 48.29201 -56.44670 37510 ft 419 kts 239°
2026-05-04 04:04 48.26817 -56.52669 37481 ft 419 kts 239°
2026-05-04 04:04 48.24416 -56.60661 37479 ft 420 kts 239°
2026-05-04 04:05 48.22018 -56.68656 37481 ft 420 kts 239°
2026-05-04 04:05 48.19636 -56.76599 37482 ft 420 kts 239°
2026-05-04 04:06 48.17224 -56.84597 37475 ft 421 kts 239°
2026-05-04 04:06 48.14797 -56.92578 37470 ft 421 kts 239°
2026-05-04 04:07 48.12366 -57.00560 37475 ft 421 kts 239°
2026-05-04 04:07 48.09933 -57.08531 37472 ft 421 kts 239°
2026-05-04 04:08 48.07507 -57.16457 37476 ft 421 kts 239°
2026-05-04 04:08 48.05063 -57.24429 37467 ft 423 kts 239°
2026-05-04 04:09 48.02602 -57.32425 37449 ft 424 kts 239°
2026-05-04 04:09 48.00125 -57.40443 37427 ft 425 kts 239°
2026-05-04 04:10 47.97629 -57.48472 37431 ft 427 kts 239°
2026-05-04 04:10 47.95125 -57.56517 37432 ft 428 kts 239°
2026-05-04 04:11 47.92609 -57.64590 37420 ft 430 kts 239°
2026-05-04 04:11 47.90088 -57.72626 37405 ft 431 kts 239°
2026-05-04 04:12 47.87539 -57.80723 37403 ft 431 kts 239°
2026-05-04 04:12 47.84987 -57.88808 37431 ft 431 kts 239°
2026-05-04 04:13 47.82434 -57.96904 37397 ft 432 kts 239°
2026-05-04 04:13 47.79862 -58.05014 37403 ft 434 kts 239°
2026-05-04 04:14 47.77276 -58.13135 37358 ft 436 kts 239°
2026-05-04 04:14 47.74673 -58.21293 37353 ft 437 kts 239°
2026-05-04 04:15 47.72076 -58.29404 37382 ft 438 kts 239°
2026-05-04 04:15 47.69451 -58.37572 37363 ft 438 kts 239°
2026-05-04 04:16 47.66820 -58.45747 37357 ft 439 kts 239°
2026-05-04 04:16 47.64185 -58.53926 37350 ft 439 kts 239°
2026-05-04 04:17 47.61529 -58.62096 37339 ft 439 kts 239°
2026-05-04 04:17 47.58887 -58.70193 37353 ft 439 kts 238°
2026-05-04 04:18 47.56231 -58.78343 37319 ft 439 kts 238°
2026-05-04 04:18 47.53570 -58.86494 37310 ft 439 kts 238°
2026-05-04 04:19 47.50904 -58.94610 37298 ft 439 kts 238°
2026-05-04 04:19 47.48241 -59.02667 37279 ft 439 kts 238°
2026-05-04 04:20 47.45556 -59.10763 37282 ft 439 kts 238°
2026-05-04 04:20 47.42873 -59.18874 37267 ft 439 kts 238°
2026-05-04 04:21 47.40185 -59.26970 37250 ft 439 kts 238°
2026-05-04 04:21 47.37490 -59.35058 37247 ft 439 kts 238°
2026-05-04 04:22 47.34779 -59.43140 37236 ft 440 kts 238°
2026-05-04 04:22 47.32057 -59.51252 37253 ft 440 kts 238°
2026-05-04 04:23 47.29349 -59.59288 37231 ft 440 kts 238°
2026-05-04 04:23 47.26607 -59.67373 37230 ft 441 kts 238°
2026-05-04 04:24 47.23868 -59.75478 37198 ft 442 kts 238°
2026-05-04 04:24 47.21119 -59.83570 37224 ft 442 kts 238°
2026-05-04 04:25 47.18369 -59.91611 37211 ft 443 kts 238°
2026-05-04 04:25 47.15591 -59.99705 37185 ft 443 kts 238°
2026-05-04 04:26 47.12810 -60.07814 37184 ft 444 kts 238°
2026-05-04 04:26 47.10022 -60.15933 37168 ft 444 kts 238°
2026-05-04 04:27 47.07242 -60.23978 37163 ft 445 kts 238°
2026-05-04 04:27 47.04435 -60.32061 37142 ft 445 kts 238°
2026-05-04 04:28 47.01626 -60.40152 37140 ft 445 kts 238°
2026-05-04 04:28 46.98825 -60.48228 37144 ft 444 kts 238°
2026-05-04 04:29 46.96010 -60.56289 37134 ft 445 kts 238°
2026-05-04 04:29 46.93178 -60.64352 37117 ft 445 kts 238°
2026-05-04 04:30 46.90360 -60.72341 37103 ft 445 kts 238°
2026-05-04 04:30 46.87526 -60.80376 37087 ft 444 kts 238°
2026-05-04 04:31 46.84682 -60.88417 37056 ft 445 kts 238°
2026-05-04 04:31 46.81833 -60.96435 37060 ft 445 kts 238°
2026-05-04 04:32 46.78977 -61.04455 37019 ft 445 kts 238°
2026-05-04 04:32 46.76141 -61.12412 37023 ft 444 kts 238°
2026-05-04 04:33 46.73279 -61.20403 37007 ft 444 kts 238°
2026-05-04 04:33 46.70406 -61.28388 37025 ft 445 kts 238°
2026-05-04 04:34 46.67528 -61.36379 37015 ft 446 kts 238°
2026-05-04 04:34 46.64638 -61.44377 37003 ft 446 kts 238°
2026-05-04 04:35 46.61745 -61.52368 37012 ft 446 kts 238°
2026-05-04 04:35 46.58838 -61.60353 37012 ft 447 kts 238°
2026-05-04 04:36 46.55925 -61.68329 37023 ft 447 kts 238°
2026-05-04 04:36 46.53027 -61.76258 37035 ft 447 kts 239°
2026-05-04 04:37 46.47186 -61.92163 37056 ft 446 kts 238°
2026-05-04 04:38 46.44255 -62.00106 37076 ft 446 kts 238°
2026-05-04 04:38 46.41312 -62.08035 37082 ft 447 kts 239°
2026-05-04 04:39 46.38366 -62.15966 37084 ft 447 kts 239°
2026-05-04 04:39 46.35439 -62.23838 37083 ft 447 kts 239°
2026-05-04 04:40 46.32468 -62.31795 37087 ft 447 kts 238°
2026-05-04 04:40 46.30006 -62.38381 37099 ft 448 kts 239°
2026-05-04 04:41 46.26557 -62.47589 37122 ft 448 kts 239°
2026-05-04 04:41 46.24083 -62.54169 37122 ft 447 kts 239°
2026-05-04 04:42 46.21103 -62.62058 37122 ft 447 kts 238°
2026-05-04 04:42 46.18114 -62.69929 37118 ft 446 kts 238°
2026-05-04 04:43 46.15124 -62.77783 37198 ft 446 kts 239°
2026-05-04 04:43 46.12129 -62.85623 37188 ft 445 kts 238°
2026-05-04 04:44 46.09139 -62.93432 37194 ft 445 kts 238°
2026-05-04 04:44 46.06167 -63.01187 37199 ft 445 kts 238°
2026-05-04 04:45 46.03176 -63.08982 37210 ft 445 kts 238°
2026-05-04 04:47 45.92717 -63.36027 37252 ft 439 kts 238°
2026-05-04 04:47 45.89752 -63.43645 37264 ft 439 kts 238°
2026-05-04 04:48 45.86761 -63.51313 37260 ft 440 kts 239°
2026-05-04 04:49 45.79247 -63.70485 37279 ft 442 kts 239°
2026-05-04 04:49 45.76227 -63.78159 37282 ft 442 kts 239°
2026-05-04 04:50 45.73214 -63.85778 37301 ft 442 kts 239°
2026-05-04 04:50 45.70169 -63.93449 37325 ft 443 kts 239°
2026-05-04 04:51 45.67128 -64.01113 37339 ft 443 kts 238°
2026-05-04 04:51 45.64079 -64.08779 37340 ft 442 kts 238°
2026-05-04 04:52 45.61052 -64.16360 37404 ft 441 kts 239°
2026-05-04 04:52 45.58005 -64.23959 37383 ft 441 kts 239°
2026-05-04 04:53 45.54950 -64.31555 37393 ft 441 kts 239°
2026-05-04 04:53 45.51892 -64.39151 37407 ft 441 kts 238°
2026-05-04 04:54 45.48828 -64.46740 37431 ft 442 kts 239°
2026-05-04 04:54 45.45766 -64.54294 37449 ft 442 kts 239°
2026-05-04 04:55 45.42690 -64.61871 37451 ft 442 kts 239°
2026-05-04 04:55 45.39612 -64.69436 37469 ft 442 kts 239°
2026-05-04 04:56 45.36528 -64.77015 37487 ft 442 kts 239°
2026-05-04 04:56 45.33454 -64.84523 37495 ft 441 kts 239°
2026-05-04 04:57 45.30352 -64.92053 37511 ft 442 kts 239°
2026-05-04 04:57 45.27242 -64.99601 37505 ft 442 kts 239°
2026-05-04 04:58 45.24141 -65.07147 37519 ft 443 kts 239°
2026-05-04 04:58 45.21027 -65.14689 37524 ft 443 kts 239°
2026-05-04 04:59 45.17915 -65.22163 37532 ft 443 kts 239°
2026-05-04 04:59 45.14782 -65.29682 37537 ft 443 kts 239°
2026-05-04 05:00 45.11660 -65.37216 37549 ft 443 kts 239°
2026-05-04 05:01 45.06966 -65.48464 37570 ft 443 kts 239°
2026-05-04 05:01 45.03806 -65.55963 37606 ft 443 kts 238°
2026-05-04 05:02 45.00633 -65.63464 37608 ft 444 kts 239°
2026-05-04 05:02 44.97486 -65.70917 37618 ft 444 kts 239°
2026-05-04 05:03 44.94313 -65.78423 37604 ft 444 kts 239°
2026-05-04 05:04 44.87971 -65.93372 37638 ft 443 kts 239°
2026-05-04 05:04 44.84824 -66.00778 37641 ft 442 kts 238°
2026-05-04 05:06 44.72082 -66.30404 37644 ft 441 kts 239°
2026-05-04 05:07 44.68924 -66.37733 37661 ft 441 kts 238°
2026-05-04 05:07 44.65725 -66.45102 37654 ft 441 kts 238°
2026-05-04 05:09 44.51290 -66.78182 37692 ft 442 kts 238°
2026-05-04 05:10 44.48063 -66.85514 37699 ft 441 kts 238°
2026-05-04 05:10 44.44837 -66.92828 37721 ft 441 kts 238°
2026-05-04 05:11 44.41705 -67.00226 37727 ft 441 kts 245°
2026-05-04 05:11 44.39594 -67.08289 37726 ft 441 kts 250°
2026-05-04 05:12 44.37563 -67.16397 37749 ft 441 kts 250°
2026-05-04 05:12 44.35510 -67.24444 37746 ft 442 kts 250°
2026-05-04 05:13 44.33440 -67.32536 37757 ft 441 kts 250°
2026-05-04 05:13 44.31389 -67.40611 37757 ft 441 kts 250°
2026-05-04 05:14 44.29335 -67.48696 37764 ft 442 kts 250°
2026-05-04 05:14 44.27280 -67.56731 37765 ft 442 kts 250°
2026-05-04 05:15 44.25202 -67.64802 37770 ft 442 kts 250°
2026-05-04 05:15 44.23096 -67.72865 37781 ft 442 kts 250°
2026-05-04 05:16 44.21001 -67.80922 37777 ft 442 kts 250°
2026-05-04 05:16 44.18916 -67.88983 37786 ft 442 kts 250°
2026-05-04 05:17 44.16830 -67.97029 37784 ft 441 kts 250°
2026-05-04 05:17 44.14733 -68.05064 37793 ft 441 kts 250°
2026-05-04 05:18 44.12626 -68.13092 37795 ft 441 kts 250°
2026-05-04 05:18 44.10522 -68.21049 37808 ft 440 kts 250°
2026-05-04 05:19 44.08404 -68.29060 37811 ft 440 kts 250°
2026-05-04 05:19 44.06295 -68.37058 37814 ft 440 kts 250°
2026-05-04 05:20 44.04199 -68.45004 37832 ft 439 kts 250°
2026-05-04 05:20 44.02085 -68.52973 37829 ft 439 kts 250°
2026-05-04 05:21 43.99948 -68.60921 37829 ft 439 kts 250°
2026-05-04 05:21 43.97804 -68.68868 37836 ft 439 kts 250°
2026-05-04 05:22 43.95692 -68.76761 37831 ft 438 kts 250°
2026-05-04 05:22 43.93565 -68.84687 37843 ft 438 kts 250°
2026-05-04 05:23 43.91425 -68.92583 37712 ft 438 kts 250°
2026-05-04 05:23 43.90353 -68.96527 37455 ft 436 kts 250°
2026-05-04 05:23 43.89281 -69.00461 37198 ft 436 kts 250°
2026-05-04 05:24 43.88211 -69.04390 36939 ft 436 kts 250°
2026-05-04 05:24 43.87138 -69.08330 36692 ft 436 kts 250°
2026-05-04 05:24 43.86065 -69.12262 35975 ft 438 kts 250°
2026-05-04 05:24 43.84979 -69.16232 34991 ft 443 kts 250°
2026-05-04 05:25 43.83889 -69.20196 34142 ft 444 kts 250°
2026-05-04 05:25 43.82787 -69.24177 33274 ft 442 kts 250°
2026-05-04 05:25 43.81683 -69.28151 32212 ft 442 kts 251°
2026-05-04 05:25 43.80576 -69.32132 31153 ft 441 kts 251°
2026-05-04 05:26 43.79477 -69.36087 30106 ft 440 kts 252°
2026-05-04 05:26 43.78389 -69.40018 29088 ft 433 kts 252°
2026-05-04 05:26 43.77316 -69.43897 27837 ft 430 kts 252°
2026-05-04 05:26 43.76263 -69.47707 26653 ft 428 kts 252°
2026-05-04 05:27 43.75203 -69.51528 25596 ft 422 kts 253°
2026-05-04 05:28 43.59059 -69.66445 22340 ft 415 kts 204°
2026-05-04 05:29 43.56310 -69.67689 22071 ft 414 kts 204°
2026-05-04 05:29 43.53614 -69.68899 21779 ft 412 kts 204°
2026-05-04 05:29 43.50898 -69.70111 21510 ft 409 kts 204°
2026-05-04 05:29 43.48190 -69.71317 21242 ft 407 kts 204°
2026-05-04 05:31 43.30436 -69.79273 19514 ft 397 kts 204°
2026-05-04 05:31 43.27851 -69.80425 19262 ft 395 kts 204°
2026-05-04 05:32 43.25242 -69.81588 19030 ft 394 kts 204°
2026-05-04 05:32 43.22632 -69.82752 18787 ft 393 kts 204°
2026-05-04 05:32 43.20027 -69.83912 18543 ft 392 kts 204°
2026-05-04 05:33 43.14853 -69.86215 18029 ft 389 kts 205°
2026-05-04 05:33 43.12281 -69.87358 17741 ft 387 kts 205°
2026-05-04 05:33 43.09719 -69.88495 17466 ft 386 kts 205°
2026-05-04 05:33 43.07164 -69.89628 17193 ft 385 kts 205°
2026-05-04 05:34 43.04612 -69.90758 16924 ft 383 kts 205°
2026-05-04 05:34 43.02110 -69.91865 16660 ft 382 kts 205°
2026-05-04 05:34 42.99587 -69.92982 16394 ft 381 kts 205°
2026-05-04 05:34 42.97068 -69.94096 16134 ft 379 kts 205°
2026-05-04 05:35 42.94563 -69.95203 15873 ft 378 kts 205°
2026-05-04 05:35 42.92055 -69.96308 15614 ft 377 kts 205°
2026-05-04 05:35 42.89567 -69.97403 15362 ft 376 kts 205°
2026-05-04 05:35 42.87070 -69.98505 15111 ft 375 kts 205°
2026-05-04 05:36 42.84591 -69.99598 14856 ft 374 kts 205°
2026-05-04 05:36 42.82121 -70.00686 14590 ft 372 kts 205°
2026-05-04 05:36 42.79687 -70.01755 14332 ft 372 kts 205°
2026-05-04 05:36 42.77228 -70.02833 14105 ft 371 kts 205°
2026-05-04 05:37 42.74783 -70.03924 13863 ft 369 kts 206°
2026-05-04 05:37 42.72363 -70.05076 13607 ft 367 kts 207°
2026-05-04 05:37 42.69968 -70.06267 13331 ft 365 kts 207°
2026-05-04 05:38 42.65804 -70.09732 12773 ft 334 kts 230°
2026-05-04 05:38 42.64289 -70.11985 12505 ft 313 kts 240°
2026-05-04 05:38 42.63148 -70.14390 12240 ft 294 kts 249°
2026-05-04 05:38 42.62287 -70.16839 11982 ft 282 kts 252°
2026-05-04 05:39 42.61468 -70.19211 11724 ft 273 kts 252°
2026-05-04 05:39 42.59955 -70.23769 11185 ft 260 kts 258°
2026-05-04 05:39 42.59384 -70.26085 10928 ft 258 kts 258°
2026-05-04 05:40 42.58237 -70.30673 10433 ft 255 kts 258°
2026-05-04 05:40 42.57663 -70.32950 10183 ft 254 kts 258°
2026-05-04 05:40 42.57092 -70.35213 9936 ft 253 kts 258°
2026-05-04 05:41 42.56523 -70.37462 9813 ft 252 kts 258°
2026-05-04 05:41 42.55952 -70.39707 9680 ft 251 kts 258°
2026-05-04 05:41 42.55380 -70.41950 9543 ft 251 kts 258°
2026-05-04 05:41 42.54816 -70.44161 9408 ft 250 kts 258°
2026-05-04 05:42 42.54247 -70.46395 9272 ft 250 kts 258°
2026-05-04 05:42 42.53677 -70.48624 9136 ft 250 kts 258°
2026-05-04 05:42 42.53086 -70.50853 8989 ft 253 kts 253°
2026-05-04 05:42 42.52151 -70.52917 8855 ft 261 kts 240°
2026-05-04 05:43 42.51036 -70.54824 8554 ft 261 kts 239°
2026-05-04 05:43 42.49914 -70.56748 8187 ft 258 kts 239°
2026-05-04 05:43 42.48809 -70.58652 7813 ft 256 kts 239°
2026-05-04 05:45 42.42161 -70.70063 6777 ft 191 kts 241°
2026-05-04 05:45 42.41366 -70.71423 6655 ft 175 kts 241°
2026-05-04 05:47 42.36907 -70.79086 4065 ft 138 kts 242°
2026-05-04 05:47 42.36314 -70.80107 3637 ft 137 kts 241°
2026-05-04 05:47 42.35742 -70.81082 3304 ft 129 kts 240°
2026-05-04 05:48 42.35188 -70.82032 3008 ft 128 kts 240°
2026-05-04 05:48 42.34637 -70.82980 2709 ft 128 kts 240°
2026-05-04 05:48 42.34108 -70.83901 2442 ft 119 kts 242°
2026-05-04 05:48 42.33688 -70.84842 2164 ft 115 kts 249°
2026-05-04 05:49 42.33377 -70.85815 2031 ft 111 kts 255°
2026-05-04 05:49 42.33171 -70.86805 2012 ft 110 kts 261°
2026-05-04 05:49 42.33057 -70.87818 1968 ft 107 kts 266°
2026-05-04 05:49 42.32988 -70.88798 1789 ft 103 kts 266°
2026-05-04 05:51 42.32983 -70.95549 695 ft 112 kts 292°
2026-05-04 05:51 42.33422 -70.96420 570 ft 114 kts 308°
2026-05-04 05:52 42.33985 -70.97190 473 ft 115 kts 314°
2026-05-04 05:52 42.34550 -70.97940 305 ft 114 kts 311°
2026-05-04 05:52 42.35113 -70.98687 163 ft 113 kts 311°
2026-05-04 05:52 42.35673 -70.99434 49 ft 113 kts 311°
2026-05-04 05:53 42.36163 -71.00109 24 ft 79 kts 315°
2026-05-04 05:54 42.37439 -71.02016 29 ft 17 kts 316°
2026-05-04 05:55 42.37410 -71.02117 30 ft 12 kts 223°
2026-05-04 05:55 42.37411 -71.02179 26 ft 2 kts 308°